User: anonymous   Login
Location: Unspecified
(0.0000°N, 0.0000°E)
Time: 23:18:20
(UTC+00:00)
Language:

STARLINK-32242 - Orbit

View from above orbital plane
View from above orbital plane
View from above satellite
View from above satellite

Ground track
Ground track

The orbit is defined by the following mean orbital elements,

1 60429U          26145.41232514 +.00000000 +00000-0 +15625-4 0 00007
2 60429  53.1610 220.9136 0000783  85.4862 274.6228 15.30188061    07
Epoch (UTC): 25 May 2026 09:53:44
Eccentricity: 0.0000783
inclination: 53.1610°
perigee height: 475 km
apogee height: 476 km
right ascension of ascending node: 220.9136°
argument of perigee: 85.4862°
revolutions per day: 15.30188061
mean anomaly at epoch: 274.6228°

The dashed part of the orbit path shows where the satellite is in the earth's shadow,  

DLR